Weather History for KLBF - March, 2015

Change the Weather History Date:

Thursday, March 5, 2015

  Actual Average Record
Temperature  
Mean Temperature 25 °F 34 °F  
Max Temperature 50 °F 49 °F 79 °F (1910)
Min Temperature -1 °F 20 °F -14 °F (1888)
Degree Days  
Heating Degree Days 40 30  
Month to date heating degree days 200 155  
Since 1 July heating degree days 5089 5183  
Cooling Degree Days 0 0  
Month to date cooling degree days 0 0  
Year to date cooling degree days 0 0  
Moisture  
Dew Point 5 °F    
Average Humidity 51    
Maximum Humidity 83    
Minimum Humidity 18    
Precipitation  
Precipitation 0.00 in 0.02 in 1.12 in (1946)
Month to date precipitation 0.01 0.13  
Year to date precipitation 0.75 0.97  
Snow  
Snow 0.00 in 0.20 in 10.20 in (1946)
Month to date snowfall 0.2 0.8  
Since 1 July snowfall 19.1 21.7  
Snow Depth 0.00 in    
Sea Level Pressure  
Sea Level Pressure 30.38 in    
Wind  
Wind Speed 7 mph (WSW)    
Max Wind Speed 20 mph    
Max Gust Speed 24 mph    
Visibility 10 miles    
Events      
T = Trace of Precipitation, MM = Missing Value Source: NWS Daily Summary

Daily Weather History Graph

Daily Weather History Graph

Search for Another Location

Airport or City:

Trip Planner

Search our weather history database for the weather conditions in past years. The results will help you decide how hot, cold, wet, or windy it might be!

Date:

Astronomy

Mar. 05, 2015 Rise Set
Actual Time 7:10 AM CST 6:37 PM CST
Civil Twilight 6:43 AM CST 7:05 PM CST
Nautical Twilight 6:11 AM CST 7:37 PM CST
Astronomical Twilight 5:39 AM CST 8:09 PM CST
Moon 6:52 PM CST (3/5) 6:57 AM CST (3/5)
Length of Visible Light 12h 22m
Length of Day
11h 27m
Full, 100% of the Moon is Illuminated
Mar 5
Full
Mar 5
Full
Mar 13
Last Quarter
Mar 20
New
Mar 27
First Quarter

Hourly Weather History & Observations

Time (CST) Temp. Windchill Dew Point Humidity Pressure Visibility Wind Dir Wind Speed Gust Speed Precip Events Conditions
12:53 AM 6.1 °F - -2.0 °F 69% 30.48 in 10.0 mi Calm Calm - N/A   Clear
1:53 AM 3.9 °F - -2.9 °F 73% 30.48 in 10.0 mi Calm Calm - N/A   Clear
2:53 AM 3.9 °F -3.4 °F -2.9 °F 73% 30.46 in 10.0 mi East 3.5 mph - N/A   Clear
3:53 AM 1.9 °F -7.6 °F -4.0 °F 76% 30.45 in 10.0 mi East 4.6 mph - N/A   Clear
4:53 AM 1.0 °F -10.3 °F -4.0 °F 79% 30.45 in 10.0 mi ESE 5.8 mph - N/A   Clear
5:53 AM 1.0 °F -8.7 °F -4.0 °F 79% 30.46 in 10.0 mi East 4.6 mph - N/A   Clear
6:53 AM -0.0 °F -9.9 °F -5.1 °F 79% 30.48 in 10.0 mi East 4.6 mph - N/A   Clear
7:53 AM 5.0 °F -2.1 °F -0.9 °F 76% 30.48 in 10.0 mi East 3.5 mph - N/A   Clear
8:53 AM 12.9 °F 5.2 °F 3.9 °F 67% 30.47 in 10.0 mi SSE 4.6 mph - N/A   Clear
9:53 AM 19.0 °F 7.5 °F 6.1 °F 57% 30.46 in 10.0 mi South 10.4 mph - N/A   Clear
10:53 AM 27.0 °F 17.3 °F 9.0 °F 47% 30.43 in 10.0 mi SW 10.4 mph - N/A   Clear
11:53 AM 34.0 °F 25.0 °F 10.9 °F 38% 30.40 in 10.0 mi SW 12.7 mph - N/A   Clear
12:53 PM 39.9 °F - 10.0 °F 29% 30.35 in 10.0 mi North - - N/A   Clear
1:53 PM 45.0 °F 38.9 °F 7.0 °F 21% 30.31 in 10.0 mi West 12.7 mph - N/A   Clear
2:53 PM 45.0 °F 39.3 °F 9.0 °F 23% 30.29 in 10.0 mi WNW 11.5 mph - N/A   Clear
3:53 PM 48.9 °F - 12.0 °F 23% 30.27 in 10.0 mi West 17.3 mph 23.0 mph N/A   Clear
4:53 PM 48.9 °F - 6.1 °F 18% 30.27 in 10.0 mi West 12.7 mph - N/A   Clear
5:53 PM 46.9 °F - 8.1 °F 21% 30.28 in 10.0 mi West 11.5 mph - N/A   Clear
6:53 PM 35.1 °F 32.2 °F 8.1 °F 33% 30.31 in 10.0 mi West 3.5 mph - N/A   Clear
7:53 PM 30.9 °F 27.5 °F 10.0 °F 42% 30.32 in 10.0 mi NW 3.5 mph - N/A   Clear
8:53 PM 25.0 °F - 10.9 °F 55% 30.33 in 10.0 mi Calm Calm - N/A   Clear
9:53 PM 23.0 °F 17.0 °F 10.9 °F 60% 30.34 in 10.0 mi WNW 4.6 mph - N/A   Clear
10:53 PM 19.9 °F 12.1 °F 10.0 °F 65% 30.33 in 10.0 mi NW 5.8 mph - N/A   Clear
11:53 PM 19.0 °F 9.0 °F 10.9 °F 71% 30.31 in 10.0 mi NW 8.1 mph - N/A   Clear